[[{"header":{"parameterUnit":"m.s-1","parameterCategory":1,"la1":30.2992,"la2":30.254,"lo1":-89.0895,"lo2":-89.0443,"dy":0.0025,"dx":0.0025,"nx":19,"ny":19,"refTime":"2026-05-13T03:00:00:Z","depth":0,"parameterNumber":2,"parameterNumberName":"U-component_of_WINDS"},"data":[0,0,0,2.063,2.0632,2.072,2.072,2.0842,2.0843,0,0,0,0,0,0,0,0,0,0,0,2.0609,2.061,2.063,2.0632,2.072,2.072,2.0842,2.0843,0,0,0,0,0,0,0,0,0,0,0,2.0609,2.061,2.0611,2.0633,2.072,2.072,2.0842,2.0772,0,0,0,0,0,0,0,0,0,0,2.0685,2.0671,2.061,2.0611,2.0633,2.072,2.072,2.0769,2.0777,2.0806,0,2.0834,0,2.0841,2.0852,2.0853,0,0,0,2.0628,2.0665,2.0684,2.0611,2.0634,2.072,2.0679,2.0773,2.0782,2.0817,2.0836,2.084,2.0843,2.0853,2.0854,2.104,2.1041,0,0,2.0623,2.0628,2.0677,2.069,2.0676,2.0676,2.0682,2.0778,2.0799,2.0836,2.0843,2.0845,2.0854,2.0855,2.1039,2.104,0,0,0,2.0612,2.0625,2.0641,2.0685,2.07,2.0679,2.0685,2.0795,2.08,2.0844,2.0846,2.0855,2.0856,2.1038,2.1039,2.1097,0,0,0,2.0609,2.0618,2.0639,2.0643,2.0698,2.0748,2.07,2.0793,2.0804,2.0846,2.0855,2.0858,2.1036,2.1038,2.1092,2.1123,0,0,0,2.0602,2.0617,2.0632,2.0643,2.0681,2.0747,2.0757,2.0795,2.0806,2.0853,2.0858,2.1036,2.1038,2.1089,2.1117,2.1174,0,0,0,2.0595,2.0681,2.0633,2.0729,2.068,2.0781,2.0756,2.0831,2.0879,2.0855,2.1037,2.1039,2.1088,2.1113,2.117,2.1224,2.1246,0,0,2.0706,2.0694,2.0751,2.071,2.0821,2.0767,2.0887,2.0926,2.0926,2.1002,2.1006,2.1094,2.1116,2.1173,2.1369,2.1387,0,0,0,2.0787,2.0828,2.0856,2.0902,2.0934,2.0964,2.0984,2.0999,2.1063,2.0966,2.1129,2.1143,2.1176,2.1201,2.1216,2.1245,2.1051,2.105,2.105,2.095,2.0946,2.104,2.1047,2.1091,2.1112,2.1148,2.1171,2.1153,2.1192,2.1215,2.1334,2.1364,2.1375,2.1405,2.1242,2.1243,2.1243,2.1243,2.1112,2.117,2.1145,2.1227,2.1223,2.1292,2.1316,2.1301,2.1365,2.1316,2.1345,2.1293,2.1395,2.1421,2.1247,2.1246,2.1246,2.1245,2.1245,2.1219,2.1246,2.1263,2.1329,2.1381,2.1385,2.1448,2.1441,2.1436,2.1464,2.1489,2.1488,2.1487,2.1476,2.1477,2.1477,2.1477,2.1478,2.1478,2.1324,2.1341,2.1394,2.1437,2.1466,2.1503,2.1526,2.1554,2.1584,2.1575,2.1575,2.1554,2.1406,2.1369,2.1484,2.1483,2.1482,2.1482,2.1481,2.1491,2.1452,2.1536,2.1565,2.1614,2.1667,2.1658,2.1717,2.174,2.1772,2.1745,2.1636,2.1624,2.1612,2.1581,2.1745,2.1745,2.1745,2.1745,2.1582,2.1575,2.1659,2.1707,2.1753,2.1753,2.1849,2.1868,2.1881,2.1895,2.187,2.1829,2.1817,2.1812,2.1795,2.1767,2.1974,2.1975,2.1975,2.1685,2.1682,2.1765,2.1777,2.1816,2.1849,2.1939,2.1995,2.2002,2.1984,2.1906,2.1896,2.183,2.1808,2.1789,2.1763,2.1711,0,0]},{"header":{"parameterUnit":"m.s-1","parameterCategory":1,"la1":30.2992,"la2":30.254,"lo1":-89.0895,"lo2":-89.0443,"dy":0.0025,"dx":0.0025,"nx":19,"ny":19,"refTime":"2026-05-13T03:00:00:Z","depth":0,"parameterNumber":3,"parameterNumberName":"V-component_of_WINDS"},"data":[0,0,0,-1.7247,-1.7249,-1.7306,-1.7307,-1.7381,-1.7381,0,0,0,0,0,0,0,0,0,0,0,-1.7232,-1.7232,-1.7247,-1.7249,-1.7306,-1.7307,-1.738,-1.7381,0,0,0,0,0,0,0,0,0,0,0,-1.7231,-1.7232,-1.7233,-1.7249,-1.7306,-1.7307,-1.738,-1.7336,0,0,0,0,0,0,0,0,0,0,-1.728,-1.7267,-1.7232,-1.7233,-1.7249,-1.7306,-1.7307,-1.7334,-1.7339,-1.7355,0,-1.737,0,-1.7377,-1.7386,-1.7387,0,0,0,-1.7248,-1.7263,-1.7278,-1.7233,-1.725,-1.7306,-1.728,-1.7337,-1.7343,-1.7361,-1.7371,-1.7374,-1.7378,-1.7387,-1.7387,-1.7485,-1.7486,0,0,-1.7244,-1.7242,-1.7274,-1.7281,-1.7274,-1.7278,-1.7282,-1.734,-1.7351,-1.7372,-1.7376,-1.738,-1.7387,-1.7388,-1.7485,-1.7485,0,0,0,-1.7236,-1.724,-1.7253,-1.7278,-1.7289,-1.728,-1.7284,-1.7348,-1.7352,-1.7376,-1.738,-1.7388,-1.7389,-1.7484,-1.7485,-1.751,0,0,0,-1.7234,-1.7235,-1.7252,-1.7251,-1.7288,-1.7319,-1.729,-1.7348,-1.7355,-1.738,-1.7388,-1.7389,-1.7484,-1.7485,-1.7508,-1.7521,0,0,0,-1.7227,-1.7235,-1.7243,-1.7251,-1.7276,-1.7318,-1.7326,-1.735,-1.7358,-1.7387,-1.739,-1.7483,-1.7484,-1.7506,-1.7519,-1.7547,0,0,0,-1.7219,-1.7263,-1.7244,-1.7295,-1.7275,-1.7333,-1.7326,-1.7369,-1.7397,-1.7388,-1.7484,-1.7485,-1.7505,-1.7517,-1.7545,-1.7571,-1.7582,0,0,-1.7274,-1.727,-1.73,-1.7284,-1.7345,-1.7325,-1.7389,-1.7416,-1.742,-1.7463,-1.7465,-1.7508,-1.7518,-1.7547,-1.7641,-1.7649,0,0,0,-1.7317,-1.7338,-1.7355,-1.7382,-1.7404,-1.7425,-1.7442,-1.7452,-1.7489,-1.7442,-1.7526,-1.7532,-1.7549,-1.7561,-1.7568,-1.7583,-1.7491,-1.749,-1.749,-1.7391,-1.7394,-1.7444,-1.7455,-1.7482,-1.75,-1.7521,-1.7537,-1.7532,-1.7552,-1.7565,-1.7622,-1.7636,-1.7642,-1.7657,-1.7579,-1.7579,-1.7579,-1.7579,-1.7471,-1.7503,-1.7496,-1.7543,-1.7546,-1.7584,-1.7603,-1.7598,-1.7634,-1.7612,-1.7627,-1.7603,-1.7651,-1.7664,-1.7581,-1.758,-1.758,-1.758,-1.758,-1.752,-1.7536,-1.7548,-1.7589,-1.7619,-1.7628,-1.7663,-1.7664,-1.7665,-1.768,-1.7694,-1.7694,-1.7694,-1.7687,-1.7687,-1.7687,-1.7687,-1.7687,-1.7688,-1.7567,-1.758,-1.761,-1.7638,-1.7656,-1.768,-1.7698,-1.7715,-1.7735,-1.7733,-1.7733,-1.7726,-1.7655,-1.7637,-1.7691,-1.769,-1.769,-1.7689,-1.7689,-1.7648,-1.763,-1.7677,-1.7695,-1.7728,-1.7758,-1.7759,-1.7795,-1.7809,-1.7826,-1.7816,-1.7763,-1.7759,-1.7753,-1.7739,-1.7815,-1.7815,-1.7815,-1.7815,-1.769,-1.7688,-1.7737,-1.7765,-1.7794,-1.78,-1.7852,-1.7867,-1.7879,-1.7888,-1.7877,-1.7857,-1.7851,-1.785,-1.7843,-1.7829,-1.7927,-1.7927,-1.7927,-1.774,-1.7741,-1.7786,-1.7799,-1.7825,-1.7847,-1.7896,-1.7928,-1.7938,-1.7932,-1.7895,-1.789,-1.7858,-1.7848,-1.7841,-1.7829,-1.7804,0,0]}]]